Clear Lake, IA

3:45 AM CST on February 11, 2016 (GMT -0600)
Mason City Municipal

Weather History for KMCW - July, 2013

Change the Weather History Date:

Wednesday, July 31, 2013

  Actual Average Record
Temperature  
Mean Temperature 69 °F 71 °F  
Max Temperature 79 °F 82 °F 103 °F (1988)
Min Temperature 59 °F 60 °F 33 °F (1898)
Degree Days  
Heating Degree Days 0 0  
Month to date heating degree days 20 0  
Since 1 June heating degree days 73 53  
Since 1 July heating degree days 20 9  
Cooling Degree Days 4 6  
Month to date cooling degree days 225 221  
Year to date cooling degree days 408 394  
Since 1 June cooling degree days 371 359  
Growing Degree Days 20 (Base 50)    
Moisture  
Dew Point 61 °F    
Average Humidity 72    
Maximum Humidity 97    
Minimum Humidity 47    
Precipitation  
Precipitation T in 0.14 in 2.05 in (1956)
Month to date precipitation 3.24 4.70  
Year to date precipitation 31.09 22.32  
Snow  
Snow 0.00 in 0.00 in - ()
Month to date snowfall 0.0 0.0  
Since 1 June snowfall 0.0 0.0  
Since 1 July snowfall 0.0 0.0  
Snow Depth 0.00 in    
Sea Level Pressure  
Sea Level Pressure 30.09 in    
Wind  
Wind Speed 7 mph (West)    
Max Wind Speed 16 mph    
Max Gust Speed 21 mph    
Visibility 6 miles    
Events Fog    
T = Trace of Precipitation, MM = Missing Value Source: NWS Daily Summary

Daily Weather History Graph

Daily Weather History Graph

Search for Another Location

Airport or City:

Trip Planner

Search our weather history database for the weather conditions in past years. The results will help you decide how hot, cold, wet, or windy it might be!

Date:

Astronomy

Jul. 31, 2013 Rise Set
Actual Time 6:02 AM CDT 8:35 PM CDT
Civil Twilight 5:30 AM CDT 9:08 PM CDT
Nautical Twilight 4:49 AM CDT 9:48 PM CDT
Astronomical Twilight 4:04 AM CDT 10:33 PM CDT
Moon 12:58 AM CDT (7/31) 3:53 PM CDT (7/31)
Length of Visible Light 15h 37m
Length of Day
14h 32m
Waning Crescent, 31% of the Moon is Illuminated
Jul 31
Waning Crescent
Aug 6
New
Aug 14
First Quarter
Aug 20
Full
Aug 28
Last Quarter

Hourly Weather History & Observations

Time (CDT) Temp. Dew Point Humidity Pressure Visibility Wind Dir Wind Speed Gust Speed Precip Events Conditions
12:28 AM 64.4 °F 62.6 °F 94% 30.11 in 7.0 mi SW 3.5 mph - N/A   Mostly Cloudy
12:53 AM 64.0 °F 62.1 °F 93% 30.07 in 6.0 mi SSE 5.8 mph - N/A   Mostly Cloudy
1:00 AM 64.4 °F 62.6 °F 94% 30.10 in 5.0 mi South 5.8 mph - N/A   Mostly Cloudy
1:53 AM 61.0 °F 59.0 °F 93% 30.08 in 5.0 mi Calm Calm - N/A   Clear
2:19 AM 62.6 °F 60.8 °F 94% 30.11 in 5.0 mi Calm Calm - N/A   Mostly Cloudy
2:53 AM 64.0 °F 62.1 °F 93% 30.08 in 4.0 mi Calm Calm - N/A   Overcast
3:53 AM 66.0 °F 63.0 °F 90% 30.08 in 7.0 mi WSW 8.1 mph - N/A   Overcast
4:46 AM 64.4 °F 60.8 °F 88% 30.10 in 6.0 mi West 4.6 mph - N/A   Scattered Clouds
4:53 AM 63.0 °F 61.0 °F 93% 30.08 in 6.0 mi West 5.8 mph - N/A   Partly Cloudy
5:36 AM 60.8 °F 60.8 °F 100% 30.11 in 1.5 mi Calm Calm - N/A   Clear
5:39 AM 60.8 °F 59.0 °F 94% 30.11 in 0.8 mi Calm Calm - N/A   Mist
5:49 AM 60.8 °F 59.0 °F 94% 30.12 in 0.2 mi Calm Calm - N/A Fog Fog
5:53 AM 61.0 °F 59.0 °F 93% 30.09 in 0.2 mi Calm Calm - N/A Fog Fog
6:04 AM 60.8 °F 59.0 °F 94% 30.12 in 1.0 mi Calm Calm - N/A   Mist
6:13 AM 60.8 °F 59.0 °F 94% 30.12 in 2.0 mi Calm Calm - N/A   Mostly Cloudy
6:45 AM 62.6 °F 60.8 °F 94% 30.12 in 3.0 mi Calm Calm - N/A   Overcast
6:53 AM 63.0 °F 61.0 °F 93% 30.09 in 2.5 mi Calm Calm - N/A   Overcast
7:01 AM 64.4 °F 62.6 °F 94% 30.12 in 3.0 mi Calm Calm - N/A   Overcast
7:38 AM 66.2 °F 62.6 °F 88% 30.12 in 4.0 mi West 5.8 mph - N/A   Overcast
7:50 AM 66.2 °F 64.4 °F 94% 30.12 in 4.0 mi West 4.6 mph - N/A   Overcast
7:53 AM 66.0 °F 64.0 °F 93% 30.10 in 4.0 mi West 6.9 mph - N/A   Overcast
8:50 AM 66.2 °F 64.4 °F 94% 30.13 in 3.0 mi WNW 5.8 mph - N/A   Overcast
8:53 AM 66.9 °F 64.0 °F 90% 30.11 in 3.0 mi WNW 6.9 mph - N/A   Overcast
9:53 AM 68.0 °F 64.9 °F 90% 30.10 in 6.0 mi NW 6.9 mph - N/A   Overcast
10:05 AM 69.8 °F 64.4 °F 83% 30.13 in 6.0 mi WNW 8.1 mph - N/A   Haze
10:53 AM 70.0 °F 64.0 °F 81% 30.09 in 10.0 mi West 4.6 mph - N/A   Mostly Cloudy
11:05 AM 71.6 °F 64.4 °F 78% 30.13 in 10.0 mi West 6.9 mph - N/A   Scattered Clouds
11:53 AM 73.9 °F 64.0 °F 71% 30.10 in 10.0 mi West 9.2 mph - N/A   Mostly Cloudy
12:53 PM 75.0 °F 61.0 °F 62% 30.09 in 10.0 mi WNW 11.5 mph - N/A   Mostly Cloudy
1:53 PM 73.0 °F 62.1 °F 68% 30.07 in 10.0 mi NW 5.8 mph - 0.00 in   Overcast
2:53 PM 78.1 °F 63.0 °F 60% 30.06 in 10.0 mi NW 11.5 mph - 0.00 in   Partly Cloudy
3:53 PM 79.0 °F 61.0 °F 54% 30.05 in 10.0 mi WNW 9.2 mph - N/A   Clear
4:53 PM 79.0 °F 59.0 °F 50% 30.04 in 10.0 mi WNW 15.0 mph - N/A   Clear
5:53 PM 79.0 °F 57.0 °F 47% 30.04 in 10.0 mi WNW 13.8 mph - N/A   Clear
6:53 PM 77.0 °F 55.9 °F 48% 30.03 in 10.0 mi NW 11.5 mph - N/A   Clear
7:53 PM 73.0 °F 57.0 °F 57% 30.02 in 10.0 mi WNW 9.2 mph - N/A   Clear
8:53 PM 68.0 °F 57.0 °F 68% 30.03 in 10.0 mi West 4.6 mph - N/A   Clear
9:53 PM 64.0 °F 57.0 °F 78% 30.05 in 10.0 mi West 5.8 mph - N/A   Clear
10:53 PM 62.1 °F 55.9 °F 80% 30.06 in 10.0 mi WNW 5.8 mph - N/A   Clear
11:53 PM 60.1 °F 55.0 °F 83% 30.06 in 10.0 mi West 8.1 mph - N/A   Clear